| time (UTC) | temp F | wind direction | speed knots | gust knots | rain 1hr in | rain 24hr in | rain mn in | humidity % | barometer mb |
| 20260506035524 | 50 | 48 | 5.2 | 7.0 | 0.00 | 0.00 | 0.00 | 74 | 1014.3 |
| 20260506035021 | 50 | 61 | 2.6 | 3.5 | 0.00 | 0.00 | 0.00 | 75 | 1014.3 |
| 20260506034518 | 50 | 236 | 1.7 | 6.1 | 0.00 | 0.00 | 0.00 | 76 | 1014.1 |
| 20260506034015 | 50 | 47 | 1.7 | 2.6 | 0.00 | 0.00 | 0.00 | 77 | 1014.1 |
| 20260506033512 | 49 | 102 | 5.2 | 7.8 | 0.00 | 0.00 | 0.00 | 77 | 1014.1 |
| 20260506033009 | 49 | 75 | 3.5 | 5.2 | 0.00 | 0.00 | 0.00 | 79 | 1013.8 |
| 20260506032507 | 49 | 56 | 0.9 | 3.5 | 0.00 | 0.00 | 0.00 | 80 | 1013.4 |
| 20260506032003 | 49 | 171 | 1.7 | 6.1 | 0.00 | 0.00 | 0.00 | 80 | 1013.2 |
| 20260506031501 | 49 | 63 | 3.5 | 7.8 | 0.00 | 0.00 | 0.00 | 80 | 1013.1 |
| 20260506030958 | 50 | 2 | 4.3 | 6.1 | 0.00 | 0.00 | 0.00 | 80 | 1013.4 |
| 20260506030455 | 50 | 42 | 5.2 | 7.0 | 0.00 | 0.00 | 0.00 | 80 | 1012.8 |
| 20260506025952 | 50 | 73 | 1.7 | 7.0 | 0.00 | 0.00 | 0.00 | 80 | 1013.2 |
| 20260506025449 | 50 | 68 | 2.6 | 3.5 | 0.00 | 0.00 | 0.00 | 81 | 1013.5 |
| 20260506024946 | 50 | 82 | 3.5 | 7.8 | 0.00 | 0.00 | 0.00 | 81 | 1013.4 |
| 20260506024442 | 50 | 90 | 3.5 | 7.8 | 0.00 | 0.00 | 0.00 | 81 | 1013.6 |
| 20260506023938 | 50 | 98 | 0.9 | 11.3 | 0.00 | 0.00 | 0.00 | 81 | 1013.6 |
| 20260506023435 | 50 | 91 | 3.5 | 6.1 | 0.00 | 0.00 | 0.00 | 81 | 1013.6 |
| 20260506022932 | 50 | 89 | 3.5 | 12.2 | 0.00 | 0.00 | 0.00 | 81 | 1013.6 |
| 20260506022430 | 50 | 55 | 4.3 | 8.7 | 0.00 | 0.00 | 0.00 | 81 | 1013.4 |
| 20260506021928 | 50 | 72 | 5.2 | 7.8 | 0.00 | 0.00 | 0.00 | 82 | 1013.3 |
| 20260506021424 | 50 | 67 | 5.2 | 7.0 | 0.00 | 0.00 | 0.00 | 82 | 1013.5 |
| 20260506020921 | 50 | 105 | 1.7 | 7.8 | 0.00 | 0.00 | 0.00 | 83 | 1013.2 |
| 20260506020419 | 50 | 47 | 1.7 | 6.1 | 0.00 | 0.00 | 0.00 | 83 | 1013.2 |
| 20260506015916 | 50 | 120 | 0.9 | 6.1 | 0.00 | 0.00 | 0.00 | 83 | 1013.1 |
| 20260506015414 | 50 | 66 | 1.7 | 3.5 | 0.00 | 0.00 | 0.00 | 82 | 1013.2 |
| 20260506014910 | 50 | 23 | 1.7 | 5.2 | 0.00 | 0.00 | 0.00 | 82 | 1013.0 |
| 20260506014407 | 50 | 47 | 1.7 | 3.5 | 0.00 | 0.00 | 0.00 | 82 | 1012.9 |
| 20260506013904 | 50 | 26 | 0.9 | 5.2 | 0.00 | 0.00 | 0.00 | 82 | 1012.8 |
| 20260506013402 | 50 | 350 | 1.7 | 5.2 | 0.00 | 0.00 | 0.00 | 81 | 1012.7 |
| 20260506012858 | 50 | 96 | 0.9 | 3.5 | 0.00 | 0.00 | 0.00 | 81 | 1012.9 |
| 20260506012355 | 50 | 65 | 1.7 | 5.2 | 0.00 | 0.00 | 0.00 | 81 | 1012.7 |
| 20260506011852 | 50 | 38 | 1.7 | 6.1 | 0.00 | 0.00 | 0.00 | 81 | 1012.8 |
| 20260506011349 | 50 | 30 | 1.7 | 7.8 | 0.00 | 0.00 | 0.00 | 81 | 1012.6 |
| 20260506010846 | 50 | 348 | 0.9 | 1.7 | 0.00 | 0.00 | 0.00 | 81 | 1012.6 |
| 20260506010344 | 50 | 39 | 0.9 | 3.5 | 0.00 | 0.00 | 0.00 | 81 | 1012.3 |
| 20260506005841 | 50 | 86 | 3.5 | 7.8 | 0.00 | 0.00 | 0.00 | 80 | 1012.4 |
| 20260506005337 | 50 | 343 | 3.5 | 5.2 | 0.00 | 0.00 | 0.00 | 80 | 1012.2 |
| 20260506004833 | 50 | 109 | 0.0 | 1.7 | 0.00 | 0.00 | 0.00 | 80 | 1011.8 |
| 20260506004331 | 50 | 51 | 3.5 | 7.0 | 0.00 | 0.00 | 0.00 | 80 | 1011.8 |
| 20260506003827 | 50 | 109 | 1.7 | 2.6 | 0.00 | 0.00 | 0.00 | 80 | 1011.6 |
| 20260506003324 | 51 | 67 | 3.5 | 7.8 | 0.00 | 0.00 | 0.00 | 80 | 1011.4 |
| 20260506002820 | 51 | 28 | 1.7 | 7.8 | 0.00 | 0.00 | 0.00 | 79 | 1011.6 |
| 20260506002317 | 51 | 330 | 1.7 | 11.3 | 0.00 | 0.00 | 0.00 | 79 | 1011.4 |
| 20260506001812 | 51 | 94 | 2.6 | 8.7 | 0.00 | 0.00 | 0.00 | 79 | 1011.4 |
| 20260506001310 | 51 | 133 | 2.6 | 9.6 | 0.00 | 0.00 | 0.00 | 78 | 1011.1 |
| 20260506000806 | 51 | 94 | 3.5 | 6.1 | 0.00 | 0.00 | 0.00 | 78 | 1011.6 |
| 20260506000304 | 51 | 95 | 0.0 | 2.6 | 0.00 | 0.00 | 0.00 | 78 | 1011.1 |
| 20260505235801 | 51 | 46 | 2.6 | 7.0 | 0.00 | 0.00 | 0.00 | 78 | 1011.3 |
| 20260505235258 | 51 | 13 | 0.9 | 6.1 | 0.00 | 0.00 | 0.00 | 77 | 1011.1 |
| 20260505234755 | 52 | 54 | 4.3 | 7.0 | 0.00 | 0.00 | 0.00 | 76 | 1011.1 |
| 20260505234253 | 52 | 112 | 1.7 | 6.1 | 0.00 | 0.00 | 0.00 | 76 | 1011.0 |
| 20260505233749 | 52 | 54 | 0.9 | 2.6 | 0.00 | 0.00 | 0.00 | 75 | 1011.4 |
| 20260505233247 | 52 | 26 | 0.9 | 9.6 | 0.00 | 0.00 | 0.00 | 75 | 1011.7 |
| 20260505232744 | 52 | 37 | 1.7 | 7.0 | 0.00 | 0.00 | 0.00 | 75 | 1011.9 |
| 20260505232241 | 52 | 98 | 0.9 | 5.2 | 0.00 | 0.00 | 0.00 | 74 | 1011.7 |
| 20260505231738 | 52 | 56 | 0.9 | 6.1 | 0.00 | 0.00 | 0.00 | 74 | 1011.7 |
| 20260505231237 | 52 | 53 | 1.7 | 3.5 | 0.00 | 0.00 | 0.00 | 74 | 1011.6 |
| 20260505230735 | 52 | 104 | 0.9 | 5.2 | 0.00 | 0.00 | 0.00 | 74 | 1011.2 |
| 20260505230231 | 52 | 53 | 3.5 | 7.8 | 0.00 | 0.00 | 0.00 | 74 | 1011.0 |
| 20260505225728 | 53 | 72 | 2.6 | 6.1 | 0.00 | 0.00 | 0.00 | 73 | 1010.9 |
| 20260505225225 | 53 | 135 | 0.0 | 1.7 | 0.00 | 0.00 | 0.00 | 73 | 1010.9 |
| 20260505224720 | 53 | 68 | 2.6 | 5.2 | 0.00 | 0.00 | 0.00 | 73 | 1011.0 |
| 20260505224218 | 53 | 359 | 1.7 | 2.6 | 0.00 | 0.00 | 0.00 | 74 | 1010.9 |
| 20260505223716 | 53 | 51 | 3.5 | 7.8 | 0.00 | 0.00 | 0.00 | 73 | 1010.8 |
| 20260505223211 | 53 | 54 | 2.6 | 7.8 | 0.00 | 0.00 | 0.00 | 74 | 1011.1 |
| 20260505222708 | 53 | 50 | 1.7 | 3.5 | 0.00 | 0.00 | 0.00 | 74 | 1010.9 |
| 20260505222203 | 53 | 10 | 2.6 | 7.0 | 0.00 | 0.00 | 0.00 | 74 | 1010.8 |
| 20260505221701 | 53 | 101 | 1.7 | 6.1 | 0.00 | 0.00 | 0.00 | 74 | 1010.5 |
| 20260505221158 | 53 | 69 | 1.7 | 5.2 | 0.00 | 0.00 | 0.00 | 74 | 1010.5 |
| 20260505220655 | 53 | 57 | 0.9 | 7.0 | 0.00 | 0.00 | 0.00 | 74 | 1010.4 |
| 20260505220153 | 53 | 62 | 4.3 | 7.0 | 0.00 | 0.00 | 0.00 | 74 | 1010.7 |
| 20260505215650 | 54 | 75 | 2.6 | 5.2 | 0.00 | 0.00 | 0.00 | 73 | 1010.5 |
| 20260505215148 | 54 | 74 | 2.6 | 5.2 | 0.00 | 0.00 | 0.00 | 73 | 1010.5 |
| 20260505214646 | 54 | 61 | 3.5 | 6.1 | 0.00 | 0.00 | 0.00 | 72 | 1009.9 |
| 20260505214142 | 54 | 92 | 3.5 | 7.0 | 0.00 | 0.00 | 0.00 | 72 | 1009.8 |
| 20260505213640 | 54 | 45 | 1.7 | 5.2 | 0.00 | 0.00 | 0.00 | 72 | 1009.8 |
| 20260505213137 | 54 | 334 | 7.8 | 11.3 | 0.00 | 0.00 | 0.00 | 72 | 1009.8 |
| 20260505212632 | 54 | 66 | 2.6 | 14.8 | 0.00 | 0.00 | 0.00 | 72 | 1009.9 |
| 20260505212130 | 54 | 324 | 3.5 | 6.1 | 0.00 | 0.00 | 0.00 | 72 | 1010.0 |
| 20260505211627 | 54 | 50 | 2.6 | 7.0 | 0.00 | 0.00 | 0.00 | 72 | 1010.1 |
| 20260505211124 | 54 | 48 | 2.6 | 7.8 | 0.00 | 0.00 | 0.00 | 72 | 1009.4 |
| 20260505210621 | 55 | 47 | 1.7 | 7.0 | 0.00 | 0.00 | 0.00 | 72 | 1009.6 |
| 20260505210118 | 55 | 317 | 1.7 | 7.0 | 0.00 | 0.00 | 0.00 | 72 | 1009.3 |
| 20260505205615 | 54 | 121 | 3.5 | 9.6 | 0.00 | 0.00 | 0.00 | 73 | 1009.3 |
| 20260505205113 | 54 | 3 | 4.3 | 8.7 | 0.00 | 0.00 | 0.00 | 74 | 1010.0 |
| 20260505204610 | 54 | 19 | 2.6 | 5.2 | 0.00 | 0.00 | 0.00 | 74 | 1010.4 |
| 20260505204107 | 54 | 88 | 2.6 | 6.1 | 0.00 | 0.00 | 0.00 | 74 | 1010.8 |
| 20260505203604 | 55 | 86 | 0.9 | 7.8 | 0.00 | 0.00 | 0.00 | 74 | 1010.5 |
| 20260505203101 | 55 | 50 | 2.6 | 7.0 | 0.00 | 0.00 | 0.00 | 73 | 1010.0 |
| 20260505202556 | 55 | 13 | 3.5 | 7.0 | 0.00 | 0.00 | 0.00 | 73 | 1009.7 |
| 20260505202053 | 55 | 353 | 1.7 | 8.7 | 0.00 | 0.00 | 0.00 | 74 | 1010.0 |
| 20260505201550 | 55 | 354 | 1.7 | 3.5 | 0.00 | 0.00 | 0.00 | 73 | 1009.7 |
| 20260505201048 | 55 | 66 | 3.5 | 11.3 | 0.00 | 0.00 | 0.00 | 74 | 1009.5 |
| 20260505200545 | 55 | 20 | 1.7 | 9.6 | 0.00 | 0.00 | 0.00 | 74 | 1009.4 |
| 20260505200042 | 55 | 348 | 2.6 | 7.8 | 0.00 | 0.00 | 0.00 | 75 | 1009.8 |
| 20260505195538 | 55 | 68 | 1.7 | 7.8 | 0.00 | 0.00 | 0.00 | 76 | 1009.7 |
| 20260505195036 | 55 | 347 | 1.7 | 7.8 | 0.00 | 0.00 | 0.00 | 76 | 1009.5 |
| 20260505194533 | 55 | 24 | 1.7 | 6.1 | 0.00 | 0.00 | 0.00 | 77 | 1009.6 |
| 20260505194028 | 55 | 70 | 1.7 | 2.6 | 0.00 | 0.00 | 0.00 | 77 | 1009.6 |
| 20260505193525 | 54 | 347 | 2.6 | 11.3 | 0.00 | 0.00 | 0.00 | 78 | 1009.6 |
| 20260505193023 | 55 | 170 | 1.7 | 7.0 | 0.00 | 0.00 | 0.00 | 78 | 1009.6 |
| 20260505192521 | 54 | 80 | 3.5 | 11.3 | 0.00 | 0.00 | 0.00 | 79 | 1009.6 |
| 20260505192018 | 55 | 321 | 1.7 | 5.2 | 0.00 | 0.00 | 0.00 | 78 | 1009.5 |
| 20260505191516 | 55 | 343 | 3.5 | 7.8 | 0.00 | 0.00 | 0.00 | 79 | 1009.4 |
| 20260505191014 | 54 | 36 | 3.5 | 7.0 | 0.00 | 0.00 | 0.00 | 79 | 1009.3 |
| 20260505190508 | 55 | 52 | 3.5 | 5.2 | 0.00 | 0.00 | 0.00 | 80 | 1009.3 |
| 20260505190005 | 55 | 17 | 3.5 | 6.1 | 0.00 | 0.00 | 0.00 | 80 | 1009.5 |
| 20260505185502 | 56 | 26 | 3.5 | 6.1 | 0.00 | 0.00 | 0.00 | 79 | 1009.5 |
| 20260505184958 | 55 | 63 | 1.7 | 6.1 | 0.00 | 0.00 | 0.00 | 80 | 1009.3 |
| 20260505184455 | 55 | 129 | 2.6 | 5.2 | 0.00 | 0.00 | 0.00 | 80 | 1009.3 |
| 20260505183951 | 56 | 337 | 1.7 | 5.2 | 0.00 | 0.00 | 0.00 | 79 | 1009.2 |
| 20260505183449 | 56 | 100 | 3.5 | 11.3 | 0.00 | 0.00 | 0.00 | 79 | 1009.2 |
| 20260505182945 | 56 | 31 | 6.1 | 9.6 | 0.00 | 0.00 | 0.00 | 79 | 1009.3 |
| 20260505182442 | 56 | 138 | 2.6 | 7.0 | 0.00 | 0.00 | 0.00 | 78 | 1009.1 |
| 20260505181938 | 57 | 295 | 1.7 | 6.1 | 0.00 | 0.00 | 0.00 | 78 | 1009.1 |
| 20260505181436 | 57 | 296 | 2.6 | 7.0 | 0.00 | 0.00 | 0.00 | 78 | 1008.9 |
| 20260505180933 | 57 | 137 | 1.7 | 3.5 | 0.00 | 0.00 | 0.00 | 78 | 1008.6 |
| 20260505180429 | 57 | 352 | 4.3 | 7.0 | 0.00 | 0.00 | 0.00 | 78 | 1008.7 |
| 20260505175926 | 57 | 345 | 1.7 | 7.8 | 0.00 | 0.00 | 0.00 | 78 | 1008.9 |
| 20260505175422 | 57 | 66 | 1.7 | 5.2 | 0.00 | 0.00 | 0.00 | 78 | 1008.6 |
| 20260505174918 | 57 | 28 | 3.5 | 7.0 | 0.00 | 0.00 | 0.00 | 78 | 1008.1 |
| 20260505174416 | 57 | 88 | 2.6 | 8.7 | 0.00 | 0.00 | 0.00 | 79 | 1008.1 |
| 20260505173912 | 57 | 40 | 1.7 | 6.1 | 0.00 | 0.00 | 0.00 | 79 | 1008.2 |
| 20260505173408 | 57 | 352 | 1.7 | 9.6 | 0.00 | 0.00 | 0.00 | 80 | 1008.2 |
| 20260505172905 | 57 | 357 | 3.5 | 7.8 | 0.00 | 0.00 | 0.00 | 79 | 1008.0 |
| 20260505172403 | 57 | 82 | 1.7 | 8.7 | 0.00 | 0.00 | 0.00 | 80 | 1008.0 |
| 20260505171903 | 57 | 33 | 2.6 | 6.1 | 0.00 | 0.00 | 0.00 | 80 | 1008.1 |
| 20260505171400 | 57 | 311 | 2.6 | 7.8 | 0.00 | 0.00 | 0.00 | 80 | 1007.9 |
| 20260505170856 | 57 | 349 | 2.6 | 6.1 | 0.00 | 0.00 | 0.00 | 81 | 1007.5 |
| 20260505170354 | 57 | 26 | 3.5 | 7.0 | 0.00 | 0.00 | 0.00 | 81 | 1007.8 |
| 20260505165848 | 57 | 76 | 2.6 | 6.1 | 0.00 | 0.00 | 0.00 | 81 | 1007.8 |
| 20260505165344 | 57 | 93 | 1.7 | 6.1 | 0.00 | 0.00 | 0.00 | 81 | 1007.5 |
| 20260505164840 | 57 | 159 | 0.9 | 3.5 | 0.00 | 0.00 | 0.00 | 82 | 1007.5 |
| 20260505164337 | 57 | 33 | 0.9 | 8.7 | 0.00 | 0.00 | 0.00 | 82 | 1007.6 |
| 20260505163835 | 57 | 56 | 1.7 | 7.8 | 0.00 | 0.00 | 0.00 | 82 | 1007.2 |
| 20260505163334 | 57 | 49 | 1.7 | 2.6 | 0.00 | 0.00 | 0.00 | 82 | 1007.1 |
| 20260505162832 | 57 | 54 | 6.1 | 9.6 | 0.00 | 0.00 | 0.00 | 82 | 1006.9 |
| 20260505162328 | 57 | 68 | 5.2 | 11.3 | 0.00 | 0.00 | 0.00 | 83 | 1006.7 |
| 20260505161825 | 57 | 64 | 3.5 | 7.8 | 0.00 | 0.00 | 0.00 | 82 | 1006.5 |
| 20260505161322 | 58 | 58 | 3.5 | 5.2 | 0.00 | 0.00 | 0.00 | 82 | 1006.3 |
| 20260505160819 | 58 | 25 | 3.5 | 11.3 | 0.00 | 0.00 | 0.00 | 82 | 1006.3 |
| 20260505160317 | 59 | 349 | 3.5 | 7.8 | 0.00 | 0.00 | 0.00 | 82 | 1006.0 |
| 20260505153256 | 61 | 93 | 3.5 | 7.0 | 0.00 | 0.00 | 0.00 | 83 | 1005.4 |
| 20260505152753 | 61 | 208 | 1.7 | 8.7 | 0.00 | 0.00 | 0.00 | 83 | 1005.1 |
| 20260505152249 | 62 | 342 | 2.6 | 8.7 | 0.00 | 0.00 | 0.00 | 83 | 1004.7 |
| 20260505151744 | 62 | 97 | 1.7 | 3.5 | 0.00 | 0.00 | 0.00 | 83 | 1005.0 |
| 20260505151241 | 62 | 105 | 3.5 | 7.0 | 0.00 | 0.00 | 0.00 | 83 | 1004.5 |
| 20260505150738 | 63 | 97 | 5.2 | 9.6 | 0.00 | 0.00 | 0.00 | 82 | 1004.4 |
| 20260505150235 | 65 | 102 | 9.6 | 14.8 | 0.00 | 0.00 | 0.00 | 82 | 1004.2 |
| 20260505140200 | 68 | 64 | 2.6 | 6.1 | 0.00 | 0.00 | 0.00 | 84 | 1002.9 |
| 20260505130124 | 68 | 77 | 1.7 | 5.2 | 0.00 | 0.00 | 0.00 | 85 | 1002.6 |
| 20260505124613 | 68 | 59 | 2.6 | 3.5 | 0.00 | 0.00 | 0.00 | 83 | 1002.5 |
| 20260505124110 | 69 | 117 | 0.9 | 5.2 | 0.00 | 0.00 | 0.00 | 82 | 1002.4 |
| 20260505123606 | 69 | 102 | 0.0 | 2.6 | 0.00 | 0.00 | 0.00 | 81 | 1002.3 |
| 20260505123102 | 69 | 54 | 0.9 | 1.7 | 0.00 | 0.00 | 0.00 | 81 | 1002.3 |
| 20260505122559 | 69 | 129 | 0.0 | 0.0 | 0.00 | 0.00 | 0.00 | 82 | 1002.4 |
| 20260505122056 | 69 | 138 | 0.0 | 0.9 | 0.00 | 0.00 | 0.00 | 81 | 1002.3 |
| 20260505121552 | 68 | 147 | 0.0 | 0.0 | 0.00 | 0.00 | 0.00 | 81 | 1001.9 |
| 20260505121050 | 69 | 151 | 0.0 | 0.0 | 0.00 | 0.00 | 0.00 | 81 | 1001.9 |
| 20260505120546 | 69 | 165 | 0.0 | 0.0 | 0.00 | 0.00 | 0.00 | 80 | 1001.8 |
| 20260505120042 | 69 | 118 | 0.0 | 0.0 | 0.00 | 0.00 | 0.00 | 79 | 1002.0 |
| 20260505115536 | 70 | 188 | 0.0 | 0.0 | 0.00 | 0.00 | 0.00 | 78 | 1001.8 |
| 20260505115034 | 70 | 103 | 0.0 | 0.0 | 0.00 | 0.00 | 0.00 | 77 | 1001.8 |
| 20260505114525 | 71 | 100 | 0.0 | 0.9 | 0.00 | 0.00 | 0.00 | 76 | 1001.7 |
| 20260505114021 | 71 | 67 | 0.9 | 2.6 | 0.00 | 0.00 | 0.00 | 75 | 1001.3 |
| 20260505113518 | 70 | 130 | 0.0 | 0.9 | 0.00 | 0.00 | 0.00 | 77 | 1001.2 |
| 20260505113014 | 70 | 52 | 1.7 | 3.5 | 0.00 | 0.00 | 0.00 | 76 | 1001.2 |
| 20260505112510 | 71 | 47 | 0.9 | 0.9 | 0.00 | 0.00 | 0.00 | 76 | 1000.9 |
| 20260505112008 | 71 | 188 | 0.9 | 2.6 | 0.00 | 0.00 | 0.00 | 74 | 1000.6 |
| 20260505111502 | 71 | 162 | 0.9 | 1.7 | 0.00 | 0.00 | 0.00 | 74 | 1000.4 |
| 20260505110959 | 71 | 94 | 0.9 | 0.9 | 0.00 | 0.00 | 0.00 | 74 | 1000.5 |
| 20260505110455 | 72 | 173 | 0.9 | 3.5 | 0.00 | 0.00 | 0.00 | 73 | 1000.6 |
| 20260505101927 | 73 | 188 | 4.3 | 7.8 | 0.00 | 0.00 | 0.00 | 73 | 999.6 |
| 20260505101426 | 73 | 241 | 5.2 | 6.1 | 0.00 | 0.00 | 0.00 | 72 | 999.7 |
| 20260505100922 | 73 | 177 | 5.2 | 11.3 | 0.00 | 0.00 | 0.00 | 73 | 999.6 |
| 20260505100420 | 73 | 187 | 4.3 | 8.7 | 0.00 | 0.00 | 0.00 | 73 | 999.7 |
| 20260505095915 | 73 | 181 | 5.2 | 7.8 | 0.00 | 0.00 | 0.00 | 72 | 999.7 |
| 20260505095413 | 73 | 211 | 7.0 | 8.7 | 0.00 | 0.00 | 0.00 | 73 | 999.6 |
| 20260505094908 | 73 | 203 | 5.2 | 7.8 | 0.00 | 0.00 | 0.00 | 73 | 999.6 |
| 20260505094406 | 73 | 223 | 6.1 | 9.6 | 0.00 | 0.00 | 0.00 | 72 | 999.7 |
| 20260505093901 | 73 | 191 | 3.5 | 8.7 | 0.00 | 0.00 | 0.00 | 72 | 999.6 |
| 20260505093359 | 73 | 174 | 5.2 | 13.0 | 0.00 | 0.00 | 0.00 | 72 | 999.8 |
| 20260505092856 | 73 | 195 | 5.2 | 11.3 | 0.00 | 0.00 | 0.00 | 72 | 999.5 |
| 20260505092354 | 73 | 234 | 2.6 | 11.3 | 0.00 | 0.00 | 0.00 | 73 | 999.4 |
| 20260505091851 | 73 | 194 | 4.3 | 7.8 | 0.00 | 0.00 | 0.00 | 73 | 999.5 |
| 20260505091349 | 73 | 212 | 7.0 | 13.9 | 0.00 | 0.00 | 0.00 | 72 | 999.7 |
| 20260505090846 | 73 | 223 | 3.5 | 8.7 | 0.00 | 0.00 | 0.00 | 73 | 999.7 |
| 20260505090345 | 73 | 188 | 3.5 | 9.6 | 0.00 | 0.00 | 0.00 | 73 | 999.6 |
| 20260505085841 | 73 | 191 | 7.0 | 11.3 | 0.00 | 0.00 | 0.00 | 72 | 999.6 |
| 20260505085339 | 73 | 176 | 9.6 | 13.0 | 0.00 | 0.00 | 0.00 | 72 | 999.7 |
| 20260505084837 | 73 | 200 | 6.1 | 11.3 | 0.00 | 0.00 | 0.00 | 72 | 999.9 |
| 20260505084335 | 73 | 178 | 5.2 | 8.7 | 0.00 | 0.00 | 0.00 | 72 | 999.8 |
| 20260505083832 | 73 | 171 | 9.6 | 13.9 | 0.00 | 0.00 | 0.00 | 72 | 1000.0 |
| 20260505083330 | 73 | 185 | 5.2 | 9.6 | 0.00 | 0.00 | 0.00 | 72 | 1000.1 |
| 20260505082826 | 73 | 189 | 4.3 | 11.3 | 0.00 | 0.00 | 0.00 | 72 | 999.9 |
| 20260505082322 | 73 | 178 | 7.8 | 12.2 | 0.00 | 0.00 | 0.00 | 73 | 1000.1 |
| 20260505081819 | 73 | 181 | 3.5 | 9.6 | 0.00 | 0.00 | 0.00 | 73 | 1000.3 |
| 20260505081316 | 73 | 177 | 7.0 | 9.6 | 0.00 | 0.00 | 0.00 | 72 | 1000.0 |
| 20260505080812 | 73 | 168 | 7.0 | 9.6 | 0.00 | 0.00 | 0.00 | 73 | 1000.2 |
| 20260505080308 | 73 | 187 | 4.3 | 7.0 | 0.00 | 0.00 | 0.00 | 73 | 1000.5 |
| 20260505075804 | 73 | 171 | 2.6 | 5.2 | 0.00 | 0.00 | 0.00 | 73 | 1000.1 |
| 20260505075304 | 73 | 201 | 6.1 | 16.5 | 0.00 | 0.00 | 0.00 | 72 | 1000.3 |
| 20260505074758 | 73 | 237 | 4.3 | 8.7 | 0.00 | 0.00 | 0.00 | 73 | 1000.3 |
| 20260505074255 | 73 | 130 | 6.1 | 11.3 | 0.00 | 0.00 | 0.00 | 73 | 1000.4 |
| 20260505073753 | 73 | 209 | 6.1 | 9.6 | 0.00 | 0.00 | 0.00 | 73 | 1000.4 |
| 20260505073251 | 73 | 187 | 7.0 | 14.8 | 0.00 | 0.00 | 0.00 | 73 | 1000.5 |
| 20260505072747 | 73 | 198 | 7.0 | 15.6 | 0.00 | 0.00 | 0.00 | 73 | 1000.4 |
| 20260505072243 | 73 | 242 | 4.3 | 9.6 | 0.00 | 0.00 | 0.00 | 73 | 1000.6 |
| 20260505071739 | 73 | 198 | 2.6 | 13.0 | 0.00 | 0.00 | 0.00 | 72 | 1000.6 |
| 20260505071236 | 73 | 202 | 7.0 | 9.6 | 0.00 | 0.00 | 0.00 | 72 | 1000.8 |
| 20260505070734 | 73 | 241 | 4.3 | 12.2 | 0.00 | 0.00 | 0.00 | 72 | 1000.7 |
| 20260505070230 | 73 | 186 | 4.3 | 7.8 | 0.00 | 0.00 | 0.00 | 72 | 1001.0 |
| 20260505065726 | 73 | 180 | 7.8 | 11.3 | 0.00 | 0.00 | 0.00 | 72 | 1001.1 |
| 20260505065223 | 73 | 178 | 3.5 | 7.0 | 0.00 | 0.00 | 0.00 | 72 | 1001.2 |
| 20260505064720 | 73 | 145 | 5.2 | 9.6 | 0.00 | 0.00 | 0.00 | 72 | 1001.2 |
| 20260505064218 | 74 | 159 | 4.3 | 9.6 | 0.00 | 0.00 | 0.00 | 71 | 1001.1 |
| 20260505063715 | 74 | 181 | 4.3 | 11.3 | 0.00 | 0.00 | 0.00 | 71 | 1001.2 |
| 20260505063211 | 74 | 287 | 4.3 | 12.2 | 0.00 | 0.00 | 0.00 | 71 | 1001.2 |
| 20260505062707 | 73 | 191 | 4.3 | 12.2 | 0.00 | 0.00 | 0.00 | 71 | 1001.1 |
| 20260505062205 | 73 | 212 | 7.8 | 11.3 | 0.00 | 0.00 | 0.00 | 72 | 1001.3 |
| 20260505061702 | 74 | 230 | 2.6 | 11.3 | 0.00 | 0.00 | 0.00 | 71 | 1001.5 |
| 20260505061200 | 74 | 199 | 3.5 | 7.8 | 0.00 | 0.00 | 0.00 | 71 | 1001.4 |
| 20260505060657 | 73 | 288 | 2.6 | 9.6 | 0.00 | 0.00 | 0.00 | 71 | 1001.4 |
| 20260505060154 | 73 | 224 | 7.8 | 13.0 | 0.00 | 0.00 | 0.00 | 71 | 1001.4 |
| 20260505055649 | 74 | 216 | 7.8 | 13.0 | 0.00 | 0.00 | 0.00 | 71 | 1001.4 |
| 20260505055146 | 73 | 199 | 6.1 | 11.3 | 0.00 | 0.00 | 0.00 | 71 | 1001.6 |
| 20260505054643 | 73 | 187 | 7.0 | 9.6 | 0.00 | 0.00 | 0.00 | 71 | 1001.8 |
| 20260505054141 | 73 | 190 | 2.6 | 12.2 | 0.00 | 0.00 | 0.00 | 71 | 1001.8 |
| 20260505053639 | 74 | 212 | 4.3 | 8.7 | 0.00 | 0.00 | 0.00 | 71 | 1001.7 |
| 20260505053135 | 74 | 191 | 5.2 | 8.7 | 0.00 | 0.00 | 0.00 | 71 | 1001.8 |
| 20260505052632 | 74 | 214 | 1.7 | 8.7 | 0.00 | 0.00 | 0.00 | 70 | 1001.9 |
| 20260505052129 | 74 | 211 | 10.4 | 14.8 | 0.00 | 0.00 | 0.00 | 70 | 1001.7 |
| 20260505051626 | 74 | 229 | 6.1 | 8.7 | 0.00 | 0.00 | 0.00 | 70 | 1001.8 |
| 20260505051124 | 74 | 14 | 0.9 | 11.3 | 0.00 | 0.00 | 0.00 | 70 | 1001.8 |
| 20260505050621 | 74 | 152 | 5.2 | 7.8 | 0.00 | 0.00 | 0.00 | 70 | 1001.9 |
| 20260505050120 | 74 | 174 | 6.1 | 12.2 | 0.00 | 0.00 | 0.00 | 70 | 1001.9 |
| 20260505041549 | 75 | 190 | 6.1 | 11.3 | 0.00 | 0.00 | 0.00 | 69 | 1002.3 |
| 20260505041047 | 75 | 189 | 10.4 | 14.8 | 0.00 | 0.00 | 0.00 | 68 | 1002.5 |
| 20260505040544 | 75 | 204 | 3.5 | 15.6 | 0.00 | 0.00 | 0.00 | 68 | 1002.7 |
| 20260505040041 | 75 | 190 | 3.5 | 7.0 | 0.00 | 0.00 | 0.00 | 68 | 1002.7 |